Starlink 31542

operational
NORAD ID: 59194 Int'l Des: 2024-045 Owner: SPXS Country: US Constellation: starlink
LEOCIRCULAR

Starlink 31542について

説明を読み込み中...

リアルタイム位置

3D地球を読み込み中...

次回通過

高度履歴

Altitude vs Time

uPlot chart will show altitude changes over time

軌道要素

1 59194U 24045S 25296.62493772 .00001134 00000-0 50695-4 0 9995
2 59194 43.0002 146.2229 0000955 274.9566 85.1176 15.27585640 92207
Epoch: Oct 23, 2025 • Age: 26 hours

現在のステータス

高度 491.9 km
速度 7.62 km/s
衛星直下点 -33.57°S, 159.96°E
打ち上げ日 Mar 11, 2024
運用期間 1.6 years
タイプ internet

技術仕様

分類 Payload
質量 730.00 kg
乾燥質量 700.00 kg
総質量 730.00 kg
長さ 0.30 m
直径 4.10 m
スパン 29.00 m
形状 Box + pan
製造者 SPXS
バスタイプ Starlink V2M
フェーズステータス In Orbit
所有者/国 SPXS/US

大規模コンステレーション

Loading constellations...